Flag for Kuwait Weather past 2 weeks in Kuwait City, Kuwait

Now
82 °F

Clear.


Feels Like: 80 °F
Forecast: 72 / 96 °F
Wind: 6 mph from Southwest

Location: Kuwait International Airport


UV Index: 7 (High)

Visibility: 10 mi


Pressure: 29.83 "Hg

Humidity: 25%

Dew point: 43 °F

Location of Kuwait CityLocation

Historic Weather in Kuwait City

°F

Kuwait City temperature yesterday

Maximum temperature yesterday: 99 °F (at 1:00 PM)
Minimum temperature yesterday: 77 °F (at 2:00 AM)
Average temperature yesterday: 89 °F

Past Weeks' High & Low Weather Summary

 TemperatureHumidityPressure
High102 °F (Apr 18, 11:00 AM)73% (Apr 10, 6:00 AM)30.15 "Hg (Apr 10, 6:00 AM)
Low50 °F (Apr 4, 4:00 AM)7% (Apr 9, 12:00 PM)29.74 "Hg (Apr 18, 12:00 AM)
Average80 °F30%29.93 "Hg
* Reported Apr 3 10:00 PM — Apr 18 10:00 PM, Kuwait City, Weather by CustomWeather, © 2014

Note: Actual official high and low records may vary slightly from our data, if they occured in-between our weather recording intervals... More about our weather records

Advertising

Historic Weather Conditions — Data for Previous 24 hours

 ConditionsComfort  
Time TempWeatherWind HumidityBarometerVisibility
10:00 PM
Apr 18
82 °FClear.6 mph25%29.83 "Hg10 mi
9:00 PM84 °FClear.No wind23%29.83 "Hg10 mi
8:00 PM86 °FClear.6 mph22%29.80 "Hg10 mi
7:00 PM90 °FClear.9 mph20%29.77 "Hg10 mi
6:00 PM91 °FSunny.10 mph18%29.74 "Hg10 mi
5:00 PM95 °FSunny.16 mph14%29.74 "Hg10 mi
4:00 PM97 °FSunny.17 mph14%29.74 "Hg10 mi
3:00 PM100 °FSunny.18 mph14%29.77 "Hg10 mi
2:00 PM99 °FSunny.17 mph15%29.77 "Hg10 mi
1:00 PM99 °FSunny.16 mph16%29.77 "Hg10 mi
12:00 PM100 °FSunny.16 mph14%29.80 "Hg10 mi
11:00 AM102 °FSunny.12 mph13%29.83 "Hg10 mi
10:00 AM99 °FSunny.10 mph14%29.83 "Hg10 mi
9:00 AM97 °FSunny.8 mph14%29.80 "Hg10 mi
8:00 AM88 °FSunny.7 mph18%29.83 "Hg10 mi
7:00 AM82 °FSunny.5 mph20%29.80 "Hg10 mi
6:00 AM77 °FSunny.5 mph24%29.77 "Hg10 mi
5:00 AM75 °FClear.5 mph25%29.77 "Hg10 mi
4:00 AM73 °FClear.No wind27%29.77 "Hg10 mi
3:00 AM73 °FClear.5 mph27%29.74 "Hg10 mi
2:00 AM79 °FClear.3 mph23%29.74 "Hg10 mi
1:00 AM81 °FClear.No wind21%29.77 "Hg10 mi
12:00 AM84 °FClear.3 mph18%29.74 "Hg10 mi
11:00 PM
Apr 17
82 °FClear.9 mph20%29.80 "Hg10 mi
10:00 PM82 °FClear.3 mph17%29.80 "Hg10 mi
Weather by CustomWeather, © 2014

See weather overview